NOAA 16 DEB, 41715

Orbit data source: Space-Track

NOAA 16 DEB, 41715 is space debris in SSO originally from a launch on Thu, 21 Sep 2000 UTC launched from the Air Force Western Test Range (AFWTR). Debris objects in space refer to the collection of defunct objects orbiting the Earth. Examples of debris include non-operational satellites, rocket bodies, and fragments generated from explosions, collisions, or faulty payload assembly.

Loading next visibility...
Identifier
41715, 2000-055PV
Orbit
SSO
Country
Flag of USUS
Related business
Manufacturer
Unknown
Mission
Spacecraft
Bus & Motor
Unknown
Mass
Unknown
Launch date (UTC)
2000-09-21 (25 years ago)
Launch vehicle
Unknown
Launch site
Air Force Western Test Range (AFWTR)
Object type
Payload
Rocket body
Debris
Shape & HBR
Unknown shape, 0.1 m
Radar Cross Section
Small (<0.1 m²)

Expand to show TLE details & history
Last TLE update: 3 days ago

TLE from 3 days ago
0 NOAA 16 DEB
1 41715U 00055PV  26034.34556565  .00005201  00000-0  19613-2 0  9992
2 41715  98.6456  81.0615 0008382   6.7406 353.3888 14.31782392507395
Epoch: 2026-02-03T08:17Z
TLE epoch observation values (Epoch: 2026-02-03T08:17:36.872Z)
Latitude
-0.00005°
Longitude
-176.86995°
Altitude
782.746 km
Speed
7.466 km/s
True Right ascension
05h 24m 14s
True Declination
0° 00' 00"
Sunlit
Object was in full shadow at epoch
Visualization orbit readout
Latitude
Unknown
Longitude
Unknown
Altitude
Unknown
Speed
Unknown
Apparent Right ascension
Unknown
Apparent Declination
Unknown
Sunlit
N/A
Visualization observer readout
Local Sidereal Time
18:24:15
Azimuth
Unknown
Elevation
Unknown
Doppler factor
Unknown
Orbital elements
Apogee altitude
788.921 km
Perigee altitude
776.917 km
Semi-major axis
7,161.056 km
Eccentricity
0.00084
Inclination
98.6456°
RAAN
81.0615°
Arg. of periapsis
6.7406°
True anomaly
353.37773°
Mean anomaly
353.3888°
Eccentric anomaly
353.38327°
Mean motion
3.5816 °/min
Orbital period
100.51 mins
BSTAR
0.0019613
Loading maneuver chart data...
Computing Atmospheric mass density...
Loading historical data...
Loading historical data...
Loading historical data...
Loading historical data...
Loading historical data...
Loading historical data...
Loading historical data...

Documentation

Showing up to 5 results
|